Voltar ao catálogo

SL-12 R/B(2)

AtivoMEO
NORAD 23208·ROCKET BODY·🇷🇺 Russia

Lançado Aug 11, 1994 de Baikonur Cosmodrome

Loading…

Próximas Passagens (próximas 24 horas)

TLE

AtualizadoSource: Space-Track

Época: Sep 11, 2026, 14:50 UTC

1 23208U 94050F   26254.61860235 -.00000002  00000-0  00000-0 0  9996
2 23208  65.4234 198.0351 0038771 200.3760 338.5612  2.13430658250098

Acompanhe SL-12 R/B(2) em tempo real com AllMySat

Download on the App Store